Winnipeg, Manitoba

9:17 AM CDT on August 16, 2017 (GMT -0500)
Winnipeg International Airport

Weather History for CYWG - February, 2014

Change the Weather History Date:

Thursday, February 6, 2014

  Actual Average Record
Temperature  
Mean Temperature -4 °F -  
Max Temperature 6 °F 18 °F 37 °F (2002)
Min Temperature -14 °F -2 °F -29 °F (2007)
Degree Days  
Heating Degree Days 69    
Moisture  
Dew Point -9 °F    
Average Humidity 71    
Maximum Humidity 77    
Minimum Humidity 66    
Precipitation  
Precipitation 0.00 in 0.02 in - ()
Sea Level Pressure  
Sea Level Pressure 30.17 in    
Wind  
Wind Speed 12 mph ()    
Max Wind Speed 22 mph    
Max Gust Speed 29 mph    
Visibility 15.0 miles    
Events Snow    
Averages and records for this station are not official NWS values.
T = Trace of Precipitation, MM = Missing Value Source: Averaged Metar Reports

Daily Weather History Graph

Daily Weather History Graph

Search for Another Location

Airport or City:

Trip Planner

Search our weather history database for the weather conditions in past years. The results will help you decide how hot, cold, wet, or windy it might be!

Date:

Astronomy

Feb. 06, 2014 Rise Set
Actual Time 7:54 AM CST 5:32 PM CST
Civil Twilight 7:20 AM CST 6:06 PM CST
Nautical Twilight 6:41 AM CST 6:44 PM CST
Astronomical Twilight 6:04 AM CST 7:22 PM CST
Moon 11:03 AM CST (2/6) 1:11 AM CST (2/6)
Length of Visible Light 10h 46m
Length of Day
9h 37m
Waxing Crescent, 49% of the Moon is Illuminated
Feb 6
Waxing Crescent
Feb 6
First Quarter
Feb 14
Full
Feb 22
Last Quarter
Mar 1
New

Hourly Weather History & Observations

Time (CST) Temp. Windchill Dew Point Humidity Pressure Visibility Wind Dir Wind Speed Gust Speed Precip Events Conditions
12:00 AM -14.8 °F -34.6 °F -20.2 °F 77% 30.47 in 15.0 mi West 10.4 mph - N/A   Scattered Clouds
1:00 AM -13.0 °F -32.4 °F -18.4 °F 77% 30.44 in 15.0 mi West 10.4 mph - N/A   Mostly Cloudy
2:00 AM -11.2 °F -32.9 °F -16.6 °F 77% 30.40 in 15.0 mi West 13.8 mph - N/A   Overcast
3:00 AM -9.4 °F -28.9 °F -14.8 °F 77% 30.38 in 15.0 mi West 11.5 mph - N/A   Overcast
4:00 AM -7.6 °F -26.6 °F -14.8 °F 71% 30.35 in 15.0 mi West 11.5 mph - N/A   Overcast
5:00 AM -7.6 °F -26.6 °F -13.0 °F 77% 30.34 in 15.0 mi West 11.5 mph - N/A   Overcast
6:00 AM -5.8 °F -22.4 °F -11.2 °F 77% 30.31 in 15.0 mi WSW 9.2 mph - N/A   Mostly Cloudy
7:00 AM -5.8 °F -23.4 °F -13.0 °F 71% 30.29 in 15.0 mi WSW 10.4 mph - N/A   Scattered Clouds
8:00 AM -5.8 °F -22.4 °F -11.2 °F 77% 30.27 in 15.0 mi WSW 9.2 mph - N/A   Partly Cloudy
9:00 AM -2.2 °F -21.5 °F -9.4 °F 71% 30.24 in 15.0 mi WSW 13.8 mph - N/A   Scattered Clouds
10:00 AM 1.4 °F -16.9 °F -5.8 °F 72% 30.22 in 15.0 mi West 13.8 mph - N/A   Mostly Cloudy
11:00 AM 3.2 °F -17.6 °F -4.0 °F 72% 30.20 in 15.0 mi West 19.6 mph - N/A Snow Low Drifting Snow
12:00 PM 5.0 °F -15.2 °F -2.2 °F 72% 30.17 in 15.0 mi West 19.6 mph - N/A Snow Low Drifting Snow
1:00 PM 6.8 °F -13.4 °F -2.2 °F 67% 30.13 in 15.0 mi West 20.7 mph 28.8 mph N/A Snow Low Drifting Snow
2:00 PM 6.8 °F -13.4 °F -2.2 °F 67% 30.10 in 15.0 mi West 20.7 mph - N/A Snow Low Drifting Snow
3:00 PM 5.0 °F -16.2 °F -4.0 °F 66% 30.08 in 15.0 mi West 21.9 mph 27.6 mph N/A Snow Low Drifting Snow
4:00 PM 5.0 °F -14.2 °F -4.0 °F 66% 30.05 in 15.0 mi West 17.3 mph 24.2 mph N/A Snow Low Drifting Snow
5:00 PM 3.2 °F -16.5 °F -5.8 °F 66% 30.03 in 15.0 mi West 17.3 mph 23.0 mph N/A Snow Low Drifting Snow
6:00 PM 3.2 °F -13.1 °F -5.8 °F 66% 30.01 in 15.0 mi WSW 11.5 mph 19.6 mph N/A Snow Low Drifting Snow
7:00 PM 3.2 °F -15.9 °F -5.8 °F 66% 29.97 in 15.0 mi WSW 16.1 mph 21.9 mph N/A Snow Low Drifting Snow
8:00 PM 1.4 °F -18.8 °F -7.6 °F 66% 29.95 in 15.0 mi WSW 17.3 mph 23.0 mph N/A Snow Low Drifting Snow
9:00 PM 1.4 °F -17.6 °F -7.6 °F 66% 29.93 in 15.0 mi WSW 15.0 mph 21.9 mph N/A Snow Low Drifting Snow
10:00 PM 1.4 °F -17.6 °F -7.6 °F 66% 29.92 in 15.0 mi WSW 15.0 mph 23.0 mph N/A Snow Low Drifting Snow
11:00 PM 1.4 °F -16.1 °F -7.6 °F 66% 29.90 in 15.0 mi West 12.7 mph - N/A Snow Low Drifting Snow